COSMOS 1275 DEB, 14407

Orbit data source: Space-Track

COSMOS 1275 DEB, 14407 is space debris in LEO originally from a launch on Thu, 04 Jun 1981 UTC launched from the Plesetsk Missile And Space Complex (PKMTR). Debris objects in space refer to the collection of defunct objects orbiting the Earth. Examples of debris include non-operational satellites, rocket bodies, and fragments generated from explosions, collisions, or faulty payload assembly.

Loading next visibility...
Identifier
14407, 1981-053JC
Orbit
LEO
Country
Flag of CISCIS
Related business
Manufacturer
Unknown
Mission
Spacecraft
Bus & Motor
Unknown
Mass
Unknown
Launch date (UTC)
1981-06-04 (45 years ago)
Launch vehicle
Unknown
Launch site
Plesetsk Missile And Space Complex (PKMTR)
Object type
Payload
Rocket body
Debris
Shape & HBR
Unknown shape, 0.1 m
Radar Cross Section
Small (<0.1 m²)

Expand to show TLE details & history
Last TLE update: 12 hours ago

TLE from 12 hours ago
0 COSMOS 1275 DEB
1 14407U 81053JC  26119.52391554  .00002757  00000-0  12147-2 0  9994
2 14407  82.7635 288.7253 0040776  44.1810 316.2616 14.22666429215001
Epoch: 2026-04-29T12:34Z
TLE epoch observation values (Epoch: 2026-04-29T12:34:26.302Z)
Latitude
-0.00005°
Longitude
-117.36794°
Altitude
798.168 km
Speed
7.465 km/s
True Right ascension
19h 14m 54s
True Declination
0° 00' 00"
Sunlit
Object was in daylight at epoch
Visualization orbit readout
Latitude
Unknown
Longitude
Unknown
Altitude
Unknown
Speed
Unknown
Apparent Right ascension
Unknown
Apparent Declination
Unknown
Sunlit
N/A
Visualization observer readout
Local Sidereal Time
07:46:43
Azimuth
Unknown
Elevation
Unknown
Doppler factor
Unknown
Orbital elements
Apogee altitude
842.764 km
Perigee altitude
784.115 km
Semi-major axis
7,191.576 km
Eccentricity
0.00408
Inclination
82.7635°
RAAN
288.7253°
Arg. of periapsis
44.181°
True anomaly
315.93736°
Mean anomaly
316.2616°
Eccentric anomaly
316.0996°
Mean motion
3.55883 °/min
Orbital period
101.16 mins
BSTAR
0.0012147
Loading maneuver chart data...
Computing Atmospheric mass density...
Loading historical data...
Loading historical data...
Loading historical data...
Loading historical data...
Loading historical data...
Loading historical data...
Loading historical data...

Documentation

Showing up to 5 results
|